{"data":{"norad_id":42835,"epoch":"2026-05-24T23:17:16.560384Z","epoch_age_seconds":74239,"freshness":"FRESH","line1":"1 42835U 17042L   26144.97033056  .00002020  00000+0  15998-3 0  9994","line2":"2 42835  97.4816 301.9268 0009424 237.3383 122.6934 15.01639346483028","mean_motion":15.01639346,"eccentricity":0.0009424,"inclination_deg":97.4816,"raan_deg":301.9268,"arg_perigee_deg":237.3383,"mean_anomaly_deg":122.6934,"bstar":0.00015998,"rev_number":48302,"period_min":95.89519639558,"perigee_km":555.30057565351,"apogee_km":568.3810458312,"semimajor_km":6939.9778107424,"source":"CELESTRAK","updated_at":"2026-05-25T13:37:55.714709Z"}}